• In Romania
  • List of Countries
  • For 7 days
  • Water Temperature
  • Satellite Maps
  • Weather Map
  • Weather Widgets
  • user-avatar
    Login

    Hourly Weather Saburovskiy

    Today, 16 July, Monday

    Time Temperature Precipitation Wind Pressure Humidity
    00:00 +22°C° 0.8 mm 1 mps 738 mmHg 85%
    01:00 +22°C° 1.2 mm 1 mps 738 mmHg 87%
    02:00 +20°C° 1.2 mm 2 mps 738 mmHg 89%
    03:00 +20°C° 0 mm 2 mps 738 mmHg 92%
    04:00 +20°C° 0.3 mm 2 mps 738 mmHg 91%
    05:00 +20°C° 0.3 mm 3 mps 738 mmHg 90%
    06:00 +21°C° 0.3 mm 3 mps 738 mmHg 89%
    07:00 +22°C° 0.1 mm 3 mps 738 mmHg 83%
    08:00 +25°C° 0.1 mm 3 mps 738 mmHg 78%
    09:00 +27°C° 0.1 mm 3 mps 738 mmHg 72%
    10:00 +28°C° 0.5 mm 3 mps 737 mmHg 68%
    11:00 +29°C° 0.5 mm 3 mps 737 mmHg 64%
    12:00 +29°C° 0.5 mm 3 mps 737 mmHg 60%
    13:00 +29°C° 1.5 mm 4 mps 737 mmHg 62%
    14:00 +29°C° 1.5 mm 4 mps 736 mmHg 64%
    15:00 +29°C° 1.5 mm 5 mps 736 mmHg 66%
    16:00 +28°C° 0.5 mm 4 mps 736 mmHg 69%
    17:00 +28°C° 0.5 mm 3 mps 736 mmHg 73%
    18:00 +27°C° 0.5 mm 3 mps 736 mmHg 76%
    19:00 +26°C° 0.3 mm 3 mps 736 mmHg 79%
    20:00 +25°C° 0.3 mm 3 mps 736 mmHg 82%
    21:00 +22°C° 0.3 mm 3 mps 736 mmHg 84%
    22:00 +22°C° 0.2 mm 3 mps 735 mmHg 86%
    23:00 +21°C° 0.2 mm 3 mps 735 mmHg 88%

    Tomorrow, 17 July, Tuesday

    Time Temperature Precipitation Wind Pressure Humidity
    00:00 +21°C° 0.2 mm 3 mps 735 mmHg 90%
    01:00 +20°C° 0.2 mm 3 mps 735 mmHg 91%
    02:00 +20°C° 0.2 mm 4 mps 735 mmHg 91%
    03:00 +20°C° 0.2 mm 4 mps 735 mmHg 92%
    04:00 +20°C° 1.1 mm 4 mps 734 mmHg 93%
    05:00 +20°C° 1.1 mm 4 mps 734 mmHg 94%
    06:00 +20°C° 1.1 mm 4 mps 734 mmHg 95%
    07:00 +20°C° 0.4 mm 5 mps 734 mmHg 92%
    08:00 +21°C° 0.4 mm 6 mps 734 mmHg 89%
    09:00 +22°C° 0.4 mm 7 mps 733 mmHg 86%
    10:00 +22°C° 0.4 mm 6 mps 733 mmHg 85%
    11:00 +22°C° 0.4 mm 6 mps 733 mmHg 84%
    12:00 +22°C° 0.4 mm 6 mps 733 mmHg 83%
    13:00 +22°C° 0.5 mm 5 mps 733 mmHg 85%
    14:00 +22°C° 0.5 mm 5 mps 733 mmHg 87%
    15:00 +22°C° 0.5 mm 5 mps 732 mmHg 89%
    16:00 +21°C° 0.6 mm 4 mps 732 mmHg 90%
    17:00 +21°C° 0.6 mm 4 mps 732 mmHg 90%
    18:00 +21°C° 0.6 mm 4 mps 732 mmHg 91%
    19:00 +21°C° 0.4 mm 3 mps 732 mmHg 93%
    20:00 +20°C° 0.4 mm 3 mps 732 mmHg 94%
    21:00 +19°C° 0.4 mm 2 mps 732 mmHg 96%
    22:00 +19°C° 0.3 mm 2 mps 731 mmHg 96%
    23:00 +19°C° 0.3 mm 2 mps 731 mmHg 97%

    Day after tomorrow, 18 July, Wednesday

    Time Temperature Precipitation Wind Pressure Humidity
    00:00 +19°C° 0.3 mm 2 mps 731 mmHg 97%
    01:00 +19°C° 0.4 mm 2 mps 731 mmHg 97%
    02:00 +19°C° 0.4 mm 2 mps 731 mmHg 97%
    03:00 +19°C° 0.4 mm 2 mps 731 mmHg 97%
    04:00 +19°C° 0.5 mm 2 mps 731 mmHg 97%
    05:00 +19°C° 0.5 mm 2 mps 731 mmHg 97%
    06:00 +19°C° 0.5 mm 3 mps 731 mmHg 96%
    07:00 +19°C° 0.6 mm 3 mps 731 mmHg 95%
    08:00 +19°C° 0.6 mm 3 mps 731 mmHg 94%
    09:00 +20°C° 0.6 mm 4 mps 731 mmHg 92%
    10:00 +20°C° 0.7 mm 5 mps 732 mmHg 91%
    11:00 +20°C° 0.7 mm 6 mps 732 mmHg 89%
    12:00 +20°C° 0.7 mm 6 mps 732 mmHg 88%
    13:00 +20°C° 0.5 mm 7 mps 733 mmHg 87%
    14:00 +20°C° 0.5 mm 7 mps 733 mmHg 87%
    15:00 +20°C° 0.5 mm 7 mps 733 mmHg 86%
    16:00 +21°C° 0.5 mm 7 mps 733 mmHg 85%
    17:00 +21°C° 0.5 mm 6 mps 734 mmHg 84%
    18:00 +21°C° 0.5 mm 6 mps 734 mmHg 83%
    19:00 +21°C° 0.4 mm 5 mps 734 mmHg 85%
    20:00 +20°C° 0.4 mm 5 mps 734 mmHg 87%
    21:00 +19°C° 0.4 mm 5 mps 734 mmHg 89%
    22:00 +19°C° 0.3 mm 5 mps 734 mmHg 90%
    23:00 +19°C° 0.3 mm 5 mps 734 mmHg 90%

    19 July, Thursday

    Time Temperature Precipitation Wind Pressure Humidity
    00:00 +19°C° 0.3 mm 5 mps 734 mmHg 91%
    01:00 +19°C° 0.6 mm 5 mps 734 mmHg 91%
    02:00 +19°C° 0.6 mm 4 mps 735 mmHg 92%
    03:00 +19°C° 0.6 mm 4 mps 735 mmHg 92%
    04:00 +19°C° 0.8 mm 4 mps 735 mmHg 92%
    05:00 +19°C° 0.8 mm 5 mps 735 mmHg 93%
    06:00 +19°C° 0.8 mm 5 mps 735 mmHg 93%
    07:00 +20°C° 0.5 mm 5 mps 736 mmHg 92%
    08:00 +20°C° 0.5 mm 5 mps 736 mmHg 90%
    09:00 +21°C° 0.5 mm 5 mps 736 mmHg 89%
    10:00 +22°C° 0.2 mm 6 mps 736 mmHg 83%
    11:00 +24°C° 0.2 mm 6 mps 737 mmHg 77%
    12:00 +26°C° 0.2 mm 6 mps 737 mmHg 71%
    13:00 +27°C° 0.6 mm 6 mps 737 mmHg 69%
    14:00 +27°C° 0.6 mm 6 mps 737 mmHg 67%
    15:00 +28°C° 0.6 mm 6 mps 737 mmHg 65%
    16:00 +28°C° 0.3 mm 5 mps 738 mmHg 68%
    17:00 +28°C° 0.3 mm 4 mps 738 mmHg 71%
    18:00 +27°C° 0.3 mm 3 mps 738 mmHg 73%
    19:00 +26°C° 0.1 mm 2 mps 738 mmHg 76%
    20:00 +25°C° 0.1 mm 2 mps 738 mmHg 79%
    21:00 +23°C° 0.1 mm 2 mps 738 mmHg 82%
    22:00 +23°C° 0.3 mm 2 mps 739 mmHg 84%
    23:00 +21°C° 0.3 mm 2 mps 739 mmHg 85%

    20 July, Friday

    Time Temperature Precipitation Wind Pressure Humidity
    00:00 +21°C° 0.3 mm 3 mps 739 mmHg 87%
    01:00 +20°C° 0.4 mm 3 mps 739 mmHg 88%
    02:00 +20°C° 0.4 mm 3 mps 739 mmHg 89%
    03:00 +20°C° 0.4 mm 3 mps 739 mmHg 91%
    04:00 +20°C° 1.1 mm 3 mps 739 mmHg 91%
    05:00 +20°C° 1.1 mm 2 mps 739 mmHg 91%
    06:00 +20°C° 1.1 mm 2 mps 739 mmHg 91%
    07:00 +22°C° 0.3 mm 3 mps 739 mmHg 87%
    08:00 +24°C° 0.3 mm 3 mps 739 mmHg 82%
    09:00 +26°C° 0.3 mm 4 mps 740 mmHg 77%
    10:00 +27°C° 0.3 mm 4 mps 739 mmHg 73%
    11:00 +28°C° 0.3 mm 4 mps 739 mmHg 69%
    12:00 +29°C° 0.3 mm 4 mps 739 mmHg 65%
    13:00 +30°C° 0 mm 3 mps 739 mmHg 61%
    14:00 +30°C° 0 mm 3 mps 739 mmHg 58%
    15:00 +31°C° 0 mm 3 mps 739 mmHg 55%
    16:00 +31°C° 0.3 mm 2 mps 739 mmHg 58%
    17:00 +31°C° 0.3 mm 1 mps 739 mmHg 60%
    18:00 +30°C° 0.3 mm 1 mps 739 mmHg 63%
    19:00 +29°C° 0.1 mm 1 mps 739 mmHg 67%
    20:00 +27°C° 0.1 mm 1 mps 739 mmHg 70%
    21:00 +23°C° 0.1 mm 0 mps 739 mmHg 74%
    22:00 +24°C° 0.5 mm 1 mps 739 mmHg 77%
    23:00 +23°C° 0.5 mm 1 mps 739 mmHg 80%

    21 July, Saturday

    Time Temperature Precipitation Wind Pressure Humidity
    00:00 +23°C° 0.5 mm 1 mps 739 mmHg 83%
    01:00 +21°C° 1.1 mm 2 mps 739 mmHg 86%
    02:00 +21°C° 1.1 mm 3 mps 740 mmHg 89%
    03:00 +20°C° 1.1 mm 3 mps 740 mmHg 92%
    04:00 +21°C° 0 mm 3 mps 740 mmHg 91%
    05:00 +21°C° 0 mm 3 mps 740 mmHg 90%
    06:00 +21°C° 0 mm 3 mps 739 mmHg 89%
    07:00 +24°C° 0 mm 3 mps 740 mmHg 82%
    08:00 +26°C° 0 mm 2 mps 740 mmHg 74%
    09:00 +28°C° 0 mm 2 mps 740 mmHg 67%
    10:00 +29°C° 0.4 mm 2 mps 740 mmHg 63%
    11:00 +30°C° 0.4 mm 2 mps 739 mmHg 59%
    12:00 +31°C° 0.4 mm 2 mps 739 mmHg 55%
    13:00 +31°C° 0.2 mm 2 mps 739 mmHg 55%
    14:00 +31°C° 0.2 mm 2 mps 739 mmHg 55%
    15:00 +31°C° 0.2 mm 2 mps 739 mmHg 55%
    16:00 +31°C° 0 mm 2 mps 739 mmHg 58%
    17:00 +30°C° 0 mm 2 mps 739 mmHg 62%
    18:00 +30°C° 0 mm 2 mps 739 mmHg 66%
    19:00 +28°C° 0.3 mm 2 mps 739 mmHg 70%
    20:00 +27°C° 0.3 mm 2 mps 739 mmHg 73%
    21:00 +25°C° 0.3 mm 1 mps 739 mmHg 77%
    22:00 +24°C° 0.8 mm 2 mps 739 mmHg 80%
    23:00 +24°C° 0.8 mm 2 mps 739 mmHg 83%
    Show more